{"data":{"norad_id":57701,"epoch":"2026-09-18T23:19:45.024960Z","epoch_age_seconds":280474,"freshness":"STALE","line1":"1 57701U 23129D   26261.97204890  .00001626  00000+0  68593-4 0  9992","line2":"2 57701  43.0034 106.2635 0001503 262.4816  97.5865 15.27580263170105","mean_motion":15.27580263,"eccentricity":0.0001503,"inclination_deg":43.0034,"raan_deg":106.2635,"arg_perigee_deg":262.4816,"mean_anomaly_deg":97.5865,"bstar":6.8593e-5,"rev_number":17010,"period_min":94.266732483961,"perigee_km":482.01707237128,"apogee_km":484.07954467502,"semimajor_km":6861.1853085232,"source":"CELESTRAK","updated_at":"2026-09-21T09:00:33.674372Z"}}